Year,Month,Day,Hour,Minute,Value (Times are PST for temperature in C)
2008,06,29,00,00,18.70
2008,06,29,00,01,18.70
2008,06,29,00,02,18.70
2008,06,29,00,03,18.70
2008,06,29,00,04,18.70
2008,06,29,00,05,18.70
2008,06,29,00,06,18.70
2008,06,29,00,07,18.70
2008,06,29,00,08,18.80
2008,06,29,00,09,18.80
2008,06,29,00,10,18.80
2008,06,29,00,11,18.80
2008,06,29,00,12,18.80
2008,06,29,00,13,18.80
2008,06,29,00,14,18.80
2008,06,29,00,15,18.90
2008,06,29,00,16,18.90
2008,06,29,00,17,18.90
2008,06,29,00,18,18.90
2008,06,29,00,19,18.90
2008,06,29,00,20,18.90
2008,06,29,00,21,18.90
2008,06,29,00,22,18.90
2008,06,29,00,23,18.90
2008,06,29,00,24,18.90
2008,06,29,00,25,18.90
2008,06,29,00,26,18.90
2008,06,29,00,27,18.90
2008,06,29,00,28,18.90
2008,06,29,00,29,18.90
2008,06,29,00,30,18.90
2008,06,29,00,31,18.90
2008,06,29,00,32,18.90
2008,06,29,00,33,18.90
2008,06,29,00,34,18.90
2008,06,29,00,35,18.90
2008,06,29,00,36,18.90
2008,06,29,00,37,18.90
2008,06,29,00,38,18.90
2008,06,29,00,39,18.90
2008,06,29,00,40,18.90
2008,06,29,00,41,18.90
2008,06,29,00,42,18.90
2008,06,29,00,43,18.80
2008,06,29,00,44,18.80
2008,06,29,00,45,18.80
2008,06,29,00,46,18.80
2008,06,29,00,47,18.80
2008,06,29,00,48,18.80
2008,06,29,00,49,18.80
2008,06,29,00,50,18.80
2008,06,29,00,51,18.80
2008,06,29,00,52,18.80
2008,06,29,00,53,18.80
2008,06,29,00,54,18.80
2008,06,29,00,55,18.70
2008,06,29,00,56,18.70
2008,06,29,00,57,18.70
2008,06,29,00,58,18.70
2008,06,29,00,59,18.70
2008,06,29,01,00,18.70
2008,06,29,01,01,18.70
2008,06,29,01,02,18.70
2008,06,29,01,03,18.60
2008,06,29,01,04,18.60
2008,06,29,01,05,18.60
2008,06,29,01,06,18.60
2008,06,29,01,07,18.60
2008,06,29,01,08,18.60
2008,06,29,01,09,18.60
2008,06,29,01,10,18.60
2008,06,29,01,11,18.60
2008,06,29,01,12,18.60
2008,06,29,01,13,18.50
2008,06,29,01,14,18.50
2008,06,29,01,15,18.50
2008,06,29,01,16,18.50
2008,06,29,01,17,18.50
2008,06,29,01,18,18.50
2008,06,29,01,19,18.50
2008,06,29,01,20,18.50
2008,06,29,01,21,18.50
2008,06,29,01,22,18.50
2008,06,29,01,23,18.40
2008,06,29,01,24,18.40
2008,06,29,01,25,18.40
2008,06,29,01,26,18.40
2008,06,29,01,27,18.40
2008,06,29,01,28,18.40
2008,06,29,01,29,18.40
2008,06,29,01,30,18.40
2008,06,29,01,31,18.50
2008,06,29,01,32,18.50
2008,06,29,01,33,18.50
2008,06,29,01,34,18.50
2008,06,29,01,35,18.50
2008,06,29,01,36,18.60
2008,06,29,01,37,18.60
2008,06,29,01,38,18.60
2008,06,29,01,39,18.60
2008,06,29,01,40,18.60
2008,06,29,01,41,18.70
2008,06,29,01,42,18.70
2008,06,29,01,43,18.70
2008,06,29,01,44,18.70
2008,06,29,01,45,18.70
2008,06,29,01,46,18.70
2008,06,29,01,47,18.70
2008,06,29,01,48,18.70
2008,06,29,01,49,18.70
2008,06,29,01,50,18.60
2008,06,29,01,51,18.60
2008,06,29,01,52,18.60
2008,06,29,01,53,18.60
2008,06,29,01,54,18.60
2008,06,29,01,55,18.60
2008,06,29,01,56,18.60
2008,06,29,01,57,18.60
2008,06,29,01,58,18.60
2008,06,29,01,59,18.60
2008,06,29,02,00,18.50
2008,06,29,02,01,18.50
2008,06,29,02,02,18.50
2008,06,29,02,03,18.50
2008,06,29,02,04,18.50
2008,06,29,02,05,18.50
2008,06,29,02,06,18.50
2008,06,29,02,07,18.40
2008,06,29,02,08,18.40
2008,06,29,02,09,18.40
2008,06,29,02,10,18.30
2008,06,29,02,11,18.20
2008,06,29,02,12,18.10
2008,06,29,02,13,17.90
2008,06,29,02,14,17.80
2008,06,29,02,15,17.70
2008,06,29,02,16,17.70
2008,06,29,02,17,17.60
2008,06,29,02,18,17.60
2008,06,29,02,19,17.50
2008,06,29,02,20,17.50
2008,06,29,02,21,17.50
2008,06,29,02,22,17.40
2008,06,29,02,23,17.40
2008,06,29,02,24,17.40
2008,06,29,02,25,17.30
2008,06,29,02,26,17.30
2008,06,29,02,27,17.30
2008,06,29,02,28,17.30
2008,06,29,02,29,17.30
2008,06,29,02,30,17.30
2008,06,29,02,31,17.30
2008,06,29,02,32,17.30
2008,06,29,02,33,17.20
2008,06,29,02,34,17.20
2008,06,29,02,35,17.20
2008,06,29,02,36,17.20
2008,06,29,02,37,17.20
2008,06,29,02,38,17.20
2008,06,29,02,39,17.20
2008,06,29,02,40,17.20
2008,06,29,02,41,17.20
2008,06,29,02,42,17.10
2008,06,29,02,43,17.10
2008,06,29,02,44,17.10
2008,06,29,02,45,17.10
2008,06,29,02,46,17.10
2008,06,29,02,47,17.10
2008,06,29,02,48,17.10
2008,06,29,02,49,17.10
2008,06,29,02,50,17.10
2008,06,29,02,51,17.10
2008,06,29,02,52,17.10
2008,06,29,02,53,17.10
2008,06,29,02,54,17.10
2008,06,29,02,55,17.10
2008,06,29,02,56,17.00
2008,06,29,02,57,17.00
2008,06,29,02,58,17.00
2008,06,29,02,59,17.00
2008,06,29,03,00,17.00
2008,06,29,03,01,17.00
2008,06,29,03,02,17.00
2008,06,29,03,03,17.00
2008,06,29,03,04,17.00
2008,06,29,03,05,17.00
2008,06,29,03,06,17.00
2008,06,29,03,07,17.00
2008,06,29,03,08,17.00
2008,06,29,03,09,16.90
2008,06,29,03,10,16.90
2008,06,29,03,11,16.90
2008,06,29,03,12,16.90
2008,06,29,03,13,16.90
2008,06,29,03,14,16.90
2008,06,29,03,15,16.90
2008,06,29,03,16,16.90
2008,06,29,03,17,16.90
2008,06,29,03,18,16.90
2008,06,29,03,19,16.90
2008,06,29,03,20,16.90
2008,06,29,03,21,16.90
2008,06,29,03,22,16.90
2008,06,29,03,23,16.90
2008,06,29,03,24,16.90
2008,06,29,03,25,16.90
2008,06,29,03,26,16.90
2008,06,29,03,27,16.90
2008,06,29,03,28,16.90
2008,06,29,03,29,16.90
2008,06,29,03,30,16.90
2008,06,29,03,31,16.90
2008,06,29,03,32,16.90
2008,06,29,03,33,16.90
2008,06,29,03,34,16.90
2008,06,29,03,35,16.90
2008,06,29,03,36,16.90
2008,06,29,03,37,16.90
2008,06,29,03,38,16.90
2008,06,29,03,39,16.90
2008,06,29,03,40,16.90
2008,06,29,03,41,16.90
2008,06,29,03,42,16.90
2008,06,29,03,43,16.90
2008,06,29,03,44,16.90
2008,06,29,03,45,16.90
2008,06,29,03,46,16.90
2008,06,29,03,47,16.90
2008,06,29,03,48,16.90
2008,06,29,03,49,16.90
2008,06,29,03,50,16.90
2008,06,29,03,51,16.90
2008,06,29,03,52,16.90
2008,06,29,03,53,16.90
2008,06,29,03,54,16.90
2008,06,29,03,55,16.90
2008,06,29,03,56,16.90
2008,06,29,03,57,16.90
2008,06,29,03,58,16.90
2008,06,29,03,59,16.90
2008,06,29,04,00,16.90
2008,06,29,04,01,16.90
2008,06,29,04,02,16.90
2008,06,29,04,03,16.90
2008,06,29,04,04,16.80
2008,06,29,04,05,16.80
2008,06,29,04,06,16.80
2008,06,29,04,07,16.80
2008,06,29,04,08,16.80
2008,06,29,04,09,16.80
2008,06,29,04,10,16.80
2008,06,29,04,11,16.80
2008,06,29,04,12,16.80
2008,06,29,04,13,16.80
2008,06,29,04,14,16.80
2008,06,29,04,15,16.80
2008,06,29,04,16,16.70
2008,06,29,04,17,16.70
2008,06,29,04,18,16.70
2008,06,29,04,19,16.70
2008,06,29,04,20,16.70
2008,06,29,04,21,16.70
2008,06,29,04,22,16.70
2008,06,29,04,23,16.70
2008,06,29,04,24,16.70
2008,06,29,04,25,16.70
2008,06,29,04,26,16.70
2008,06,29,04,27,16.70
2008,06,29,04,28,16.70
2008,06,29,04,29,16.70
2008,06,29,04,30,16.70
2008,06,29,04,31,16.70
2008,06,29,04,32,16.70
2008,06,29,04,33,16.70
2008,06,29,04,34,16.70
2008,06,29,04,35,16.70
2008,06,29,04,36,16.70
2008,06,29,04,37,16.70
2008,06,29,04,38,16.60
2008,06,29,04,39,16.60
2008,06,29,04,40,16.60
2008,06,29,04,41,16.60
2008,06,29,04,42,16.60
2008,06,29,04,43,16.50
2008,06,29,04,44,16.40
2008,06,29,04,45,16.40
2008,06,29,04,46,16.40
2008,06,29,04,47,16.40
2008,06,29,04,48,16.40
2008,06,29,04,49,16.40
2008,06,29,04,50,16.40
2008,06,29,04,51,16.40
2008,06,29,04,52,16.40
2008,06,29,04,53,16.40
2008,06,29,04,54,16.40
2008,06,29,04,55,16.30
2008,06,29,04,56,16.30
2008,06,29,04,57,16.30
2008,06,29,04,58,16.30
2008,06,29,04,59,16.30
2008,06,29,05,00,16.30
2008,06,29,05,01,16.30
2008,06,29,05,02,16.30
2008,06,29,05,03,16.30
2008,06,29,05,04,16.20
2008,06,29,05,05,16.20
2008,06,29,05,06,16.20
2008,06,29,05,07,16.20
2008,06,29,05,08,16.20
2008,06,29,05,09,16.20
2008,06,29,05,10,16.20
2008,06,29,05,11,16.20
2008,06,29,05,12,16.20
2008,06,29,05,13,16.20
2008,06,29,05,14,16.20
2008,06,29,05,15,16.10
2008,06,29,05,16,16.10
2008,06,29,05,17,16.10
2008,06,29,05,18,16.10
2008,06,29,05,19,16.10
2008,06,29,05,20,16.10
2008,06,29,05,21,16.10
2008,06,29,05,22,16.10
2008,06,29,05,23,16.10
2008,06,29,05,24,16.10
2008,06,29,05,25,16.10
2008,06,29,05,26,16.10
2008,06,29,05,27,16.10
2008,06,29,05,28,16.10
2008,06,29,05,29,16.10
2008,06,29,05,30,16.10
2008,06,29,05,31,16.10
2008,06,29,05,32,16.10
2008,06,29,05,33,16.10
2008,06,29,05,34,16.10
2008,06,29,05,35,16.10
2008,06,29,05,36,16.10
2008,06,29,05,37,16.10
2008,06,29,05,38,16.10
2008,06,29,05,39,16.10
2008,06,29,05,40,16.10
2008,06,29,05,41,16.10
2008,06,29,05,42,16.10
2008,06,29,05,43,16.10
2008,06,29,05,44,16.10
2008,06,29,05,45,16.10
2008,06,29,05,46,16.10
2008,06,29,05,47,16.20
2008,06,29,05,48,16.20
2008,06,29,05,49,16.20
2008,06,29,05,50,16.20
2008,06,29,05,51,16.20
2008,06,29,05,52,16.20
2008,06,29,05,53,16.30
2008,06,29,05,54,16.30
2008,06,29,05,55,16.30
2008,06,29,05,56,16.40
2008,06,29,05,57,16.40
2008,06,29,05,58,16.40
2008,06,29,05,59,16.40
2008,06,29,06,00,16.40
2008,06,29,06,01,16.60
2008,06,29,06,02,16.60
2008,06,29,06,03,16.60
2008,06,29,06,04,16.70
2008,06,29,06,05,16.70
2008,06,29,06,06,16.70
2008,06,29,06,07,16.70
2008,06,29,06,08,16.70
2008,06,29,06,09,16.80
2008,06,29,06,10,16.80
2008,06,29,06,11,16.90
2008,06,29,06,12,16.90
2008,06,29,06,13,16.90
2008,06,29,06,14,16.90
2008,06,29,06,15,17.00
2008,06,29,06,16,17.00
2008,06,29,06,17,17.00
2008,06,29,06,18,17.00
2008,06,29,06,19,17.10
2008,06,29,06,20,17.10
2008,06,29,06,21,17.10
2008,06,29,06,22,17.10
2008,06,29,06,23,17.20
2008,06,29,06,24,17.20
2008,06,29,06,25,17.20
2008,06,29,06,26,17.30
2008,06,29,06,27,17.30
2008,06,29,06,28,17.30
2008,06,29,06,29,17.30
2008,06,29,06,30,17.30
2008,06,29,06,31,17.40
2008,06,29,06,32,17.40
2008,06,29,06,33,17.50
2008,06,29,06,34,17.50
2008,06,29,06,35,17.60
2008,06,29,06,36,17.60
2008,06,29,06,37,17.70
2008,06,29,06,38,17.70
2008,06,29,06,39,17.70
2008,06,29,06,40,17.80
2008,06,29,06,41,17.80
2008,06,29,06,42,17.80
2008,06,29,06,43,17.80
2008,06,29,06,44,17.80
2008,06,29,06,45,17.70
2008,06,29,06,46,17.70
2008,06,29,06,47,17.70
2008,06,29,06,48,17.60
2008,06,29,06,49,17.60
2008,06,29,06,50,17.60
2008,06,29,06,51,17.60
2008,06,29,06,52,17.50
2008,06,29,06,53,17.50
2008,06,29,06,54,17.50
2008,06,29,06,55,17.50
2008,06,29,06,56,17.50
2008,06,29,06,57,17.50
2008,06,29,06,58,17.50
2008,06,29,06,59,17.50
2008,06,29,07,00,17.40
2008,06,29,07,01,17.40
2008,06,29,07,02,17.30
2008,06,29,07,03,17.30
2008,06,29,07,04,17.30
2008,06,29,07,05,17.30
2008,06,29,07,06,17.30
2008,06,29,07,07,17.30
2008,06,29,07,08,17.20
2008,06,29,07,09,17.20
2008,06,29,07,10,17.20
2008,06,29,07,11,17.20
2008,06,29,07,12,17.20
2008,06,29,07,13,17.20
2008,06,29,07,14,17.30
2008,06,29,07,15,17.30
2008,06,29,07,16,17.40
2008,06,29,07,17,17.50
2008,06,29,07,18,17.50
2008,06,29,07,19,17.60
2008,06,29,07,20,17.70
2008,06,29,07,21,17.80
2008,06,29,07,22,17.90
2008,06,29,07,23,17.90
2008,06,29,07,24,17.90
2008,06,29,07,25,18.00
2008,06,29,07,26,18.10
2008,06,29,07,27,18.10
2008,06,29,07,28,18.10
2008,06,29,07,29,18.20
2008,06,29,07,30,18.20
2008,06,29,07,31,18.20
2008,06,29,07,32,18.30
2008,06,29,07,33,18.40
2008,06,29,07,34,18.50
2008,06,29,07,35,18.60
2008,06,29,07,36,18.60
2008,06,29,07,37,18.70
2008,06,29,07,38,18.90
2008,06,29,07,39,18.90
2008,06,29,07,40,19.10
2008,06,29,07,41,19.10
2008,06,29,07,42,19.10
2008,06,29,07,43,19.10
2008,06,29,07,44,19.00
2008,06,29,07,45,18.90
2008,06,29,07,46,18.80
2008,06,29,07,47,18.80
2008,06,29,07,48,18.80
2008,06,29,07,49,18.80
2008,06,29,07,50,18.90
2008,06,29,07,51,18.90
2008,06,29,07,52,18.90
2008,06,29,07,53,19.00
2008,06,29,07,54,19.10
2008,06,29,07,55,19.20
2008,06,29,07,56,19.30
2008,06,29,07,57,19.40
2008,06,29,07,58,19.40
2008,06,29,07,59,19.50
2008,06,29,08,00,19.60
2008,06,29,08,01,19.70
2008,06,29,08,02,19.80
2008,06,29,08,03,19.90
2008,06,29,08,04,19.90
2008,06,29,08,05,19.90
2008,06,29,08,06,19.90
2008,06,29,08,07,19.90
2008,06,29,08,08,20.10
2008,06,29,08,09,20.10
2008,06,29,08,10,20.10
2008,06,29,08,11,20.10
2008,06,29,08,12,20.20
2008,06,29,08,13,20.20
2008,06,29,08,14,20.30
2008,06,29,08,15,20.30
2008,06,29,08,16,20.40
2008,06,29,08,17,20.40
2008,06,29,08,18,20.30
2008,06,29,08,19,20.30
2008,06,29,08,20,20.40
2008,06,29,08,21,20.50
2008,06,29,08,22,20.60
2008,06,29,08,23,20.70
2008,06,29,08,24,20.80
2008,06,29,08,25,20.90
2008,06,29,08,26,21.00
2008,06,29,08,27,21.00
2008,06,29,08,28,21.00
2008,06,29,08,29,21.10
2008,06,29,08,30,21.10
2008,06,29,08,31,21.20
2008,06,29,08,32,21.30
2008,06,29,08,33,21.30
2008,06,29,08,34,21.40
2008,06,29,08,35,21.50
2008,06,29,08,36,21.60
2008,06,29,08,37,21.70
2008,06,29,08,38,21.90
2008,06,29,08,39,22.00
2008,06,29,08,40,22.00
2008,06,29,08,41,22.00
2008,06,29,08,42,22.00
2008,06,29,08,43,22.00
2008,06,29,08,44,22.00
2008,06,29,08,45,22.00
2008,06,29,08,46,22.10
2008,06,29,08,47,22.10
2008,06,29,08,48,22.20
2008,06,29,08,49,22.30
2008,06,29,08,50,22.40
2008,06,29,08,51,22.50
2008,06,29,08,52,22.60
2008,06,29,08,53,22.70
2008,06,29,08,54,22.80
2008,06,29,08,55,22.90
2008,06,29,08,56,23.10
2008,06,29,08,57,23.20
2008,06,29,08,58,23.30
2008,06,29,08,59,23.40
2008,06,29,09,00,23.40
2008,06,29,09,01,23.40
2008,06,29,09,02,23.30
2008,06,29,09,03,23.20
2008,06,29,09,04,23.10
2008,06,29,09,05,23.00
2008,06,29,09,06,22.80
2008,06,29,09,07,22.60
2008,06,29,09,08,22.50
2008,06,29,09,09,22.40
2008,06,29,09,10,22.20
2008,06,29,09,11,21.90
2008,06,29,09,12,21.70
2008,06,29,09,13,21.60
2008,06,29,09,14,21.50
2008,06,29,09,15,21.40
2008,06,29,09,16,21.40
2008,06,29,09,17,21.50
2008,06,29,09,18,21.60
2008,06,29,09,19,21.60
2008,06,29,09,20,21.60
2008,06,29,09,21,21.50
2008,06,29,09,22,21.30
2008,06,29,09,23,21.30
2008,06,29,09,24,21.30
2008,06,29,09,25,21.30
2008,06,29,09,26,21.30
2008,06,29,09,27,21.40
2008,06,29,09,28,21.50
2008,06,29,09,29,21.60
2008,06,29,09,30,21.60
2008,06,29,09,31,21.60
2008,06,29,09,32,21.60
2008,06,29,09,33,21.60
2008,06,29,09,34,21.60
2008,06,29,09,35,21.60
2008,06,29,09,36,21.60
2008,06,29,09,37,21.60
2008,06,29,09,38,21.60
2008,06,29,09,39,21.60
2008,06,29,09,40,21.60
2008,06,29,09,41,21.70
2008,06,29,09,42,21.90
2008,06,29,09,43,22.00
2008,06,29,09,44,22.10
2008,06,29,09,45,22.20
2008,06,29,09,46,22.20
2008,06,29,09,47,22.20
2008,06,29,09,48,22.10
2008,06,29,09,49,22.10
2008,06,29,09,50,21.90
2008,06,29,09,51,21.70
2008,06,29,09,52,21.60
2008,06,29,09,53,21.40
2008,06,29,09,54,21.20
2008,06,29,09,55,21.10
2008,06,29,09,56,21.00
2008,06,29,09,57,21.10
2008,06,29,09,58,21.10
2008,06,29,09,59,21.10
2008,06,29,10,00,21.10
2008,06,29,10,01,21.10
2008,06,29,10,02,21.00
2008,06,29,10,03,21.00
2008,06,29,10,04,21.00
2008,06,29,10,05,21.00
2008,06,29,10,06,21.00
2008,06,29,10,07,21.00
2008,06,29,10,08,21.00
2008,06,29,10,09,21.00
2008,06,29,10,10,21.00
2008,06,29,10,11,21.10
2008,06,29,10,12,21.20
2008,06,29,10,13,21.20
2008,06,29,10,14,21.30
2008,06,29,10,15,21.30
2008,06,29,10,16,21.40
2008,06,29,10,17,21.60
2008,06,29,10,18,21.80
2008,06,29,10,19,21.90
2008,06,29,10,20,22.10
2008,06,29,10,21,22.10
2008,06,29,10,22,22.20
2008,06,29,10,23,22.20
2008,06,29,10,24,22.20
2008,06,29,10,25,22.20
2008,06,29,10,26,22.30
2008,06,29,10,27,22.40
2008,06,29,10,28,22.50
2008,06,29,10,29,22.60
2008,06,29,10,30,22.70
2008,06,29,10,31,22.70
2008,06,29,10,32,22.70
2008,06,29,10,33,22.60
2008,06,29,10,34,22.50
2008,06,29,10,35,22.40
2008,06,29,10,36,22.30
2008,06,29,10,37,22.20
2008,06,29,10,38,22.20
2008,06,29,10,39,22.30
2008,06,29,10,40,22.30
2008,06,29,10,41,22.10
2008,06,29,10,42,22.00
2008,06,29,10,43,21.90
2008,06,29,10,44,21.90
2008,06,29,10,45,21.90
2008,06,29,10,46,22.00
2008,06,29,10,47,22.20
2008,06,29,10,48,22.30
2008,06,29,10,49,22.40
2008,06,29,10,50,22.40
2008,06,29,10,51,22.60
2008,06,29,10,52,22.70
2008,06,29,10,53,22.70
2008,06,29,10,54,22.80
2008,06,29,10,55,23.00
2008,06,29,10,56,23.20
2008,06,29,10,57,23.30
2008,06,29,10,58,23.30
2008,06,29,10,59,23.30
2008,06,29,11,00,23.00
2008,06,29,11,01,22.80
2008,06,29,11,02,22.70
2008,06,29,11,03,22.60
2008,06,29,11,04,22.70
2008,06,29,11,05,22.80
2008,06,29,11,06,22.90
2008,06,29,11,07,23.10
2008,06,29,11,08,23.30
2008,06,29,11,09,23.50
2008,06,29,11,10,23.70
2008,06,29,11,11,23.80
2008,06,29,11,12,24.00
2008,06,29,11,13,24.10
2008,06,29,11,14,24.20
2008,06,29,11,15,24.20
2008,06,29,11,16,24.10
2008,06,29,11,17,23.90
2008,06,29,11,18,23.80
2008,06,29,11,19,23.80
2008,06,29,11,20,23.70
2008,06,29,11,21,23.80
2008,06,29,11,22,23.90
2008,06,29,11,23,24.00
2008,06,29,11,24,24.20
2008,06,29,11,25,24.40
2008,06,29,11,26,24.50
2008,06,29,11,27,24.60
2008,06,29,11,28,24.60
2008,06,29,11,29,24.60
2008,06,29,11,30,24.60
2008,06,29,11,31,24.70
2008,06,29,11,32,24.90
2008,06,29,11,33,25.00
2008,06,29,11,34,25.00
2008,06,29,11,35,25.10
2008,06,29,11,36,25.20
2008,06,29,11,37,25.30
2008,06,29,11,38,25.40
2008,06,29,11,39,25.40
2008,06,29,11,40,25.40
2008,06,29,11,41,25.30
2008,06,29,11,42,25.40
2008,06,29,11,43,25.30
2008,06,29,11,44,25.10
2008,06,29,11,45,24.90
2008,06,29,11,46,24.90
2008,06,29,11,47,24.90
2008,06,29,11,48,24.80
2008,06,29,11,49,24.80
2008,06,29,11,50,24.70
2008,06,29,11,51,24.70
2008,06,29,11,52,24.70
2008,06,29,11,53,24.60
2008,06,29,11,54,24.60
2008,06,29,11,55,24.60
2008,06,29,11,56,24.40
2008,06,29,11,57,24.50
2008,06,29,11,58,24.60
2008,06,29,11,59,24.50
2008,06,29,12,00,24.50
2008,06,29,12,01,24.40
2008,06,29,12,02,24.40
2008,06,29,12,03,24.50
2008,06,29,12,04,24.60
2008,06,29,12,05,24.60
2008,06,29,12,06,24.70
2008,06,29,12,07,24.70
2008,06,29,12,08,24.80
2008,06,29,12,09,24.80
2008,06,29,12,10,24.90
2008,06,29,12,11,25.00
2008,06,29,12,12,25.20
2008,06,29,12,13,25.20
2008,06,29,12,14,25.10
2008,06,29,12,15,25.10
2008,06,29,12,16,25.20
2008,06,29,12,17,25.20
2008,06,29,12,18,25.20
2008,06,29,12,19,25.30
2008,06,29,12,20,25.40
2008,06,29,12,21,25.50
2008,06,29,12,22,25.50
2008,06,29,12,23,25.50
2008,06,29,12,24,25.50
2008,06,29,12,25,25.40
2008,06,29,12,26,25.40
2008,06,29,12,27,25.30
2008,06,29,12,28,25.30
2008,06,29,12,29,25.30
2008,06,29,12,30,25.30
2008,06,29,12,31,25.20
2008,06,29,12,32,25.10
2008,06,29,12,33,25.00
2008,06,29,12,34,25.00
2008,06,29,12,35,25.10
2008,06,29,12,36,25.10
2008,06,29,12,37,25.00
2008,06,29,12,38,24.90
2008,06,29,12,39,24.90
2008,06,29,12,40,24.90
2008,06,29,12,41,24.90
2008,06,29,12,42,25.00
2008,06,29,12,43,25.20
2008,06,29,12,44,25.20
2008,06,29,12,45,25.20
2008,06,29,12,46,25.30
2008,06,29,12,47,25.20
2008,06,29,12,48,25.30
2008,06,29,12,49,25.30
2008,06,29,12,50,25.30
2008,06,29,12,51,25.40
2008,06,29,12,52,25.30
2008,06,29,12,53,25.20
2008,06,29,12,54,25.00
2008,06,29,12,55,24.90
2008,06,29,12,56,24.80
2008,06,29,12,57,24.70
2008,06,29,12,58,24.60
2008,06,29,12,59,24.50
2008,06,29,13,00,24.40
2008,06,29,13,01,24.20
2008,06,29,13,02,24.10
2008,06,29,13,03,24.10
2008,06,29,13,04,24.00
2008,06,29,13,05,23.90
2008,06,29,13,06,23.90
2008,06,29,13,07,24.00
2008,06,29,13,08,24.10
2008,06,29,13,09,24.10
2008,06,29,13,10,24.30
2008,06,29,13,11,24.30
2008,06,29,13,12,24.40
2008,06,29,13,13,24.50
2008,06,29,13,14,24.50
2008,06,29,13,15,24.60
2008,06,29,13,16,24.60
2008,06,29,13,17,24.60
2008,06,29,13,18,24.60
2008,06,29,13,19,24.60
2008,06,29,13,20,24.60
2008,06,29,13,21,24.70
2008,06,29,13,22,24.70
2008,06,29,13,23,24.70
2008,06,29,13,24,24.70
2008,06,29,13,25,24.70
2008,06,29,13,26,24.70
2008,06,29,13,27,24.70
2008,06,29,13,28,24.70
2008,06,29,13,29,24.70
2008,06,29,13,30,24.70
2008,06,29,13,31,24.80
2008,06,29,13,32,24.90
2008,06,29,13,33,24.80
2008,06,29,13,34,24.80
2008,06,29,13,35,24.70
2008,06,29,13,36,24.80
2008,06,29,13,37,24.80
2008,06,29,13,38,24.90
2008,06,29,13,39,24.90
2008,06,29,13,40,24.90
2008,06,29,13,41,25.00
2008,06,29,13,42,25.00
2008,06,29,13,43,25.10
2008,06,29,13,44,25.20
2008,06,29,13,45,25.40
2008,06,29,13,46,25.50
2008,06,29,13,47,25.40
2008,06,29,13,48,25.40
2008,06,29,13,49,25.50
2008,06,29,13,50,25.50
2008,06,29,13,51,25.60
2008,06,29,13,52,25.50
2008,06,29,13,53,25.50
2008,06,29,13,54,25.40
2008,06,29,13,55,25.40
2008,06,29,13,56,25.40
2008,06,29,13,57,25.30
2008,06,29,13,58,25.30
2008,06,29,13,59,25.30
2008,06,29,14,00,25.30
2008,06,29,14,01,25.40
2008,06,29,14,02,25.40
2008,06,29,14,03,25.40
2008,06,29,14,04,25.40
2008,06,29,14,05,25.30
2008,06,29,14,06,25.30
2008,06,29,14,07,25.40
2008,06,29,14,08,25.40
2008,06,29,14,09,25.30
2008,06,29,14,10,25.30
2008,06,29,14,11,25.40
2008,06,29,14,12,25.50
2008,06,29,14,13,25.50
2008,06,29,14,14,25.50
2008,06,29,14,15,25.70
2008,06,29,14,16,25.80
2008,06,29,14,17,25.90
2008,06,29,14,18,26.10
2008,06,29,14,19,26.20
2008,06,29,14,20,26.20
2008,06,29,14,21,26.20
2008,06,29,14,22,26.20
2008,06,29,14,23,26.20
2008,06,29,14,24,26.30
2008,06,29,14,25,26.30
2008,06,29,14,26,26.30
2008,06,29,14,27,26.30
2008,06,29,14,28,26.40
2008,06,29,14,29,26.40
2008,06,29,14,30,26.40
2008,06,29,14,31,26.60
2008,06,29,14,32,26.60
2008,06,29,14,33,26.70
2008,06,29,14,34,26.80
2008,06,29,14,35,26.90
2008,06,29,14,36,26.80
2008,06,29,14,37,26.80
2008,06,29,14,38,26.80
2008,06,29,14,39,26.80
2008,06,29,14,40,27.00
2008,06,29,14,41,27.00
2008,06,29,14,42,26.90
2008,06,29,14,43,26.80
2008,06,29,14,44,26.80
2008,06,29,14,45,26.90
2008,06,29,14,46,27.10
2008,06,29,14,47,27.20
2008,06,29,14,48,27.30
2008,06,29,14,49,27.30
2008,06,29,14,50,27.30
2008,06,29,14,51,27.30
2008,06,29,14,52,27.30
2008,06,29,14,53,27.30
2008,06,29,14,54,27.30
2008,06,29,14,55,27.20
2008,06,29,14,56,27.10
2008,06,29,14,57,27.10
2008,06,29,14,58,26.90
2008,06,29,14,59,26.80
2008,06,29,15,00,26.80
2008,06,29,15,01,26.70
2008,06,29,15,02,26.60
2008,06,29,15,03,26.50
2008,06,29,15,04,26.40
2008,06,29,15,05,26.30
2008,06,29,15,06,26.30
2008,06,29,15,07,26.20
2008,06,29,15,08,26.20
2008,06,29,15,09,26.30
2008,06,29,15,10,26.50
2008,06,29,15,11,26.60
2008,06,29,15,12,26.60
2008,06,29,15,13,26.60
2008,06,29,15,14,26.60
2008,06,29,15,15,26.60
2008,06,29,15,16,26.60
2008,06,29,15,17,26.60
2008,06,29,15,18,26.70
2008,06,29,15,19,26.60
2008,06,29,15,20,26.60
2008,06,29,15,21,26.60
2008,06,29,15,22,26.60
2008,06,29,15,23,26.70
2008,06,29,15,24,26.70
2008,06,29,15,25,26.80
2008,06,29,15,26,26.80
2008,06,29,15,27,26.80
2008,06,29,15,28,26.90
2008,06,29,15,29,26.90
2008,06,29,15,30,27.00
2008,06,29,15,31,27.10
2008,06,29,15,32,27.20
2008,06,29,15,33,27.20
2008,06,29,15,34,27.20
2008,06,29,15,35,27.20
2008,06,29,15,36,27.30
2008,06,29,15,37,27.30
2008,06,29,15,38,27.30
2008,06,29,15,39,27.40
2008,06,29,15,40,27.50
2008,06,29,15,41,27.70
2008,06,29,15,42,27.70
2008,06,29,15,43,27.80
2008,06,29,15,44,27.80
2008,06,29,15,45,27.70
2008,06,29,15,46,27.60
2008,06,29,15,47,27.50
2008,06,29,15,48,27.40
2008,06,29,15,49,27.30
2008,06,29,15,50,27.30
2008,06,29,15,51,27.30
2008,06,29,15,52,27.30
2008,06,29,15,53,27.30
2008,06,29,15,54,27.20
2008,06,29,15,55,27.20
2008,06,29,15,56,27.20
2008,06,29,15,57,27.20
2008,06,29,15,58,27.20
2008,06,29,15,59,27.20
2008,06,29,16,00,27.20
2008,06,29,16,01,27.20
2008,06,29,16,02,27.20
2008,06,29,16,03,27.30
2008,06,29,16,04,27.30
2008,06,29,16,05,27.30
2008,06,29,16,06,27.30
2008,06,29,16,07,27.30
2008,06,29,16,08,27.30
2008,06,29,16,09,27.30
2008,06,29,16,10,27.20
2008,06,29,16,11,27.20
2008,06,29,16,12,27.20
2008,06,29,16,13,27.20
2008,06,29,16,14,27.20
2008,06,29,16,15,27.20
2008,06,29,16,16,27.30
2008,06,29,16,17,27.30
2008,06,29,16,18,27.30
2008,06,29,16,19,27.30
2008,06,29,16,20,27.30
2008,06,29,16,21,27.30
2008,06,29,16,22,27.30
2008,06,29,16,23,27.30
2008,06,29,16,24,27.30
2008,06,29,16,25,27.30
2008,06,29,16,26,27.30
2008,06,29,16,27,27.30
2008,06,29,16,28,27.30
2008,06,29,16,29,27.30
2008,06,29,16,30,27.30
2008,06,29,16,31,27.30
2008,06,29,16,32,27.30
2008,06,29,16,33,27.40
2008,06,29,16,34,27.40
2008,06,29,16,35,27.50
2008,06,29,16,36,27.60
2008,06,29,16,37,27.60
2008,06,29,16,38,27.50
2008,06,29,16,39,27.40
2008,06,29,16,40,27.50
2008,06,29,16,41,27.50
2008,06,29,16,42,27.40
2008,06,29,16,43,27.40
2008,06,29,16,44,27.30
2008,06,29,16,45,27.40
2008,06,29,16,46,27.40
2008,06,29,16,47,27.50
2008,06,29,16,48,27.60
2008,06,29,16,49,27.60
2008,06,29,16,50,27.70
2008,06,29,16,51,27.70
2008,06,29,16,52,27.70
2008,06,29,16,53,27.60
2008,06,29,16,54,27.60
2008,06,29,16,55,27.50
2008,06,29,16,56,27.40
2008,06,29,16,57,27.40
2008,06,29,16,58,27.40
2008,06,29,16,59,27.40
2008,06,29,17,00,27.40
2008,06,29,17,01,27.30
2008,06,29,17,02,27.30
2008,06,29,17,03,27.30
2008,06,29,17,04,27.30
2008,06,29,17,05,27.30
2008,06,29,17,06,27.30
2008,06,29,17,07,27.30
2008,06,29,17,08,27.30
2008,06,29,17,09,27.20
2008,06,29,17,10,27.00
2008,06,29,17,11,26.80
2008,06,29,17,12,26.60
2008,06,29,17,13,26.50
2008,06,29,17,14,26.30
2008,06,29,17,15,26.20
2008,06,29,17,16,26.20
2008,06,29,17,17,26.20
2008,06,29,17,18,26.20
2008,06,29,17,19,26.20